Regional Weather Roundup
Issued by NWS

Home | Current Version | Previous Version | Text Only | Print | Product List | Glossary On
Versions: 1 2 3 4 5 6 7 8 9 10 11 12 13 14 15 16 17 18 19 20 21 22 23 24 25 26 27 28
000
ASUS44 KLIX 222313
RWRLA
LOUISIANA WEATHER ROUNDUP
NATIONAL WEATHER SERVICE NEW ORLEANS LA
600 PM CDT WED MAR 22 2017

NOTE: "FAIR" INDICATES FEW OR NO CLOUDS BELOW 12,000 FEET WITH NO
      SIGNIFICANT WEATHER AND/OR OBSTRUCTIONS TO VISIBILITY.
      SKY/WX - SKY CONDITION AND SIGNIFICANT WEATHER.
      TMP - AIR TEMPERATURE.    DP   - DEWPOINT TEMPERATURE.
      RH  - RELATIVE HUMIDITY.  PRES - PRESSURE.
      HX  - HEAT INDEX.         WCI  - WIND CHILL INDEX.

*  THESE STATIONS ARE NOT NWS OR FAA STATIONS AND ARE NOT UNDER
   NWS QUALITY CONTROL.

LAZ040-048-061>063-065-066-069-230000-
SOUTHEAST LOUISIANA

CITY           SKY/WX    TMP DP  RH WIND       PRES   REMARKS
N.O. INTL ARPT MOSUNNY   78  59  51 CALM      30.11S
N.O. LAKEFRONT SUNNY     76  67  73 W8        30.11S
N.O. DOWNTOWN*   N/A     81  52  36 NW5       30.12S
RESERVE*       FAIR      83  56  39 W3        30.11S
SLIDELL        SUNNY     79  63  57 VRB7      30.09R
BATON ROUGE    MOSUNNY   82  55  39 W7        30.12R
BOOTHVILLE     SUNNY     76  66  71 SW9       30.12S
BELLE CHASSE   MOSUNNY   79  57  46 NW5       30.11R
BOGALUSA*      FAIR      82  57  41 W3        30.10S
GALLIANO*      CLEAR     79  63  58 S7        30.11S
NEW ROADS*     FAIR      81  54  39 NW7       30.13R
GONZALES*      FAIR      82  53  36 NW6       30.11R
HAMMOND*       PTSUNNY   82  54  36 W5        30.10S
HOUMA*         SUNNY     79  59  50 NE3       30.11S
PORT FOURCHON* CLEAR     75  66  73 SW10      30.13R

$$

LAZ041-044-053-054-230000-
SOUTHWEST LOUISIANA

CITY           SKY/WX    TMP DP  RH WIND       PRES   REMARKS
LAKE CHARLES   SUNNY     77  64  64 S8        30.12R
LAFAYETTE      SUNNY     83  58  42 SW5       30.11S
PATTERSON      MOSUNNY   79  65  62 W13       30.12S
SALT POINT       N/A     74  68  81 VRB3      30.12R
NEW IBERIA     SUNNY     82  55  39 CALM      30.12S
CHENAULT AIRPK MOSUNNY   79  64  61 SW10      30.12R

$$

LAZ027-028-230000-
CENTRAL LOUISIANA

CITY           SKY/WX    TMP DP  RH WIND       PRES   REMARKS
FORT POLK      SUNNY     82  57  42 S8        30.10R
ALEXANDRIA INT SUNNY     79  57  46 VRB5      30.10S
ALEXANDRIA     SUNNY     81  54  39 NW5       30.12S

$$

LAZ001-002-230000-
NORTHWEST LOUISIANA

CITY           SKY/WX    TMP DP  RH WIND       PRES   REMARKS
SHREVEPORT     MOSUNNY   80  58  46 SE7       30.10S
BARKSDALE AFB  MOSUNNY   79  58  47 SE7       30.10F
DTN SHREVEPORT CLOUDY    80  58  46 E6        30.10F

$$

LAZ014-016-230000-
NORTHEAST LOUISIANA

CITY           SKY/WX    TMP DP  RH WIND       PRES   REMARKS
MONROE         SUNNY     78  57  48 NE8       30.14S
TALLULAH       SUNNY     76  55  48 N10       30.13S

$$





USA.gov is the U.S. government's official web portal to all federal, state and local government web resources and services.